Change the Weather History Date:

Thursday, August 1, 2013

  Actual Average Record
Temperature  
Mean Temperature 78 °F 78 °F  
Max Temperature 86 °F 88 °F 100 °F (1915)
Min Temperature 70 °F 69 °F 56 °F (1997)
Degree Days  
Heating Degree Days 0 0  
Month to date heating degree days 0 0  
Since 1 June heating degree days 0 6  
Since 1 July heating degree days 0 0  
Cooling Degree Days 13 13  
Month to date cooling degree days 13 13  
Year to date cooling degree days 862 898  
Since 1 June cooling degree days 712 739  
Growing Degree Days 28 (Base 50)    
Moisture  
Dew Point 69 °F    
Average Humidity 78    
Maximum Humidity 100    
Minimum Humidity 55    
Precipitation  
Precipitation T in 0.13 in 1.53 in (1994)
Month to date precipitation T 0.13  
Year to date precipitation 32.74 25.04  
Sea Level Pressure  
Sea Level Pressure 29.93 in    
Wind  
Wind Speed 6 mph (SW)    
Max Wind Speed 12 mph    
Max Gust Speed 16 mph    
Visibility 8 miles    
Events Rain    
T = Trace of Precipitation, MM = Missing Value Source: NWS Daily Summary

Daily Weather History Graph

Daily Weather History Graph

Search for Another Location

Airport or City:

Trip Planner

Search our weather history database for the weather conditions in past years. The results will help you decide how hot, cold, wet, or windy it might be!

Date:

Astronomy

Aug. 01, 2013 Rise Set
Actual Time 6:27 AM EDT 8:24 PM EDT
Civil Twilight 5:58 AM EDT 8:52 PM EDT
Nautical Twilight 5:24 AM EDT 9:27 PM EDT
Astronomical Twilight 4:47 AM EDT 10:03 PM EDT
Moon 2:03 AM EDT 4:30 PM EDT
Length of Visible Light 14h 53m
Length of Day
13h 57m
Waning Crescent, 23% of the Moon is Illuminated
Aug 1
Waning Crescent
Aug 6
New
Aug 14
First Quarter
Aug 20
Full
Aug 28
Last Quarter

Hourly Weather History & Observations

Time (EDT) Temp. Heat Index Dew Point Humidity Pressure Visibility Wind Dir Wind Speed Gust Speed Precip Events Conditions
12:18 AM 71.6 °F - 69.8 °F 94% 30.02 in 8.0 mi SSW 8.1 mph - N/A   Overcast
12:54 AM 71.1 °F - 69.1 °F 93% 29.98 in 9.0 mi SSW 10.4 mph - N/A   Overcast
1:54 AM 71.1 °F - 69.1 °F 93% 29.96 in 9.0 mi SSW 6.9 mph - N/A   Overcast
2:54 AM 71.1 °F - 69.1 °F 93% 29.94 in 9.0 mi SSW 5.8 mph - N/A   Overcast
3:54 AM 70.0 °F - 69.1 °F 97% 29.92 in 7.0 mi SW 6.9 mph - N/A   Mostly Cloudy
4:54 AM 70.0 °F - 69.1 °F 97% 29.92 in 8.0 mi SW 5.8 mph - N/A   Mostly Cloudy
5:43 AM 69.8 °F - 68.0 °F 94% 29.94 in 8.0 mi SW 5.8 mph - N/A   Overcast
5:54 AM 70.0 °F - 69.1 °F 97% 29.91 in 8.0 mi SSW 5.8 mph - N/A   Mostly Cloudy
6:04 AM 69.8 °F - 69.8 °F 100% 29.94 in 7.0 mi SSW 5.8 mph - N/A   Overcast
6:54 AM 70.0 °F - 68.0 °F 93% 29.93 in 7.0 mi SW 8.1 mph - N/A   Overcast
7:24 AM 71.6 °F - 69.8 °F 94% 29.95 in 2.5 mi SW 6.9 mph - 0.00 in Rain Light Rain
7:40 AM 71.6 °F - 69.8 °F 94% 29.96 in 3.0 mi SSW 5.8 mph - 0.00 in   Overcast
7:54 AM 71.1 °F - 69.1 °F 93% 29.93 in 4.0 mi SW 5.8 mph - 0.00 in   Overcast
8:54 AM 72.0 °F - 69.1 °F 91% 29.94 in 6.0 mi SSW 5.8 mph - N/A   Overcast
9:54 AM 73.0 °F - 70.0 °F 90% 29.93 in 5.0 mi SSW 5.8 mph - N/A   Overcast
10:35 AM 73.4 °F - 69.8 °F 88% 29.96 in 6.0 mi SW 6.9 mph - N/A   Mostly Cloudy
10:54 AM 75.9 °F - 70.0 °F 82% 29.94 in 7.0 mi West 6.9 mph - N/A   Mostly Cloudy
11:15 AM 77.0 °F - 69.8 °F 78% 29.97 in 8.0 mi Variable 4.6 mph - N/A   Mostly Cloudy
11:54 AM 77.0 °F - 69.1 °F 76% 29.94 in 10.0 mi West 5.8 mph - N/A   Mostly Cloudy
12:54 PM 79.0 °F - 69.1 °F 72% 29.92 in 10.0 mi WSW 6.9 mph - N/A   Mostly Cloudy
1:06 PM 80.6 °F 83.9 °F 69.8 °F 70% 29.95 in 10.0 mi SW 4.6 mph - N/A   Mostly Cloudy
1:42 PM 80.6 °F 83.9 °F 69.8 °F 70% 29.93 in 10.0 mi North 5.8 mph - N/A   Mostly Cloudy
1:54 PM 82.0 °F 85.5 °F 69.1 °F 65% 29.90 in 10.0 mi NNW 8.1 mph - N/A   Mostly Cloudy
2:54 PM 82.0 °F 84.1 °F 66.0 °F 58% 29.89 in 10.0 mi NNW 5.8 mph - N/A   Mostly Cloudy
3:54 PM 84.0 °F 87.8 °F 69.1 °F 61% 29.87 in 10.0 mi NW 6.9 mph - N/A   Mostly Cloudy
4:54 PM 84.9 °F 87.6 °F 66.9 °F 55% 29.87 in 10.0 mi Variable 3.5 mph - N/A   Mostly Cloudy
5:54 PM 82.0 °F 84.9 °F 68.0 °F 62% 29.87 in 10.0 mi WSW 5.8 mph - N/A   Mostly Cloudy
6:54 PM 81.0 °F 84.9 °F 71.1 °F 72% 29.88 in 10.0 mi WSW 5.8 mph - 0.00 in   Mostly Cloudy
7:54 PM 80.1 °F 82.9 °F 69.1 °F 69% 29.89 in 10.0 mi WSW 4.6 mph - N/A   Scattered Clouds
8:54 PM 77.0 °F - 71.1 °F 82% 29.91 in 10.0 mi SSW 4.6 mph - N/A   Scattered Clouds
9:54 PM 75.9 °F - 70.0 °F 82% 29.92 in 10.0 mi SW 5.8 mph - N/A   Scattered Clouds
10:54 PM 75.0 °F - 71.1 °F 87% 29.92 in 10.0 mi WSW 5.8 mph - N/A   Scattered Clouds
11:54 PM 73.9 °F - 70.0 °F 87% 29.93 in 10.0 mi Calm Calm - N/A   Scattered Clouds